Belleville, IL

1:38 AM CDT on June 23, 2018 (GMT -0500)
Scott Air Force Base-Midamerica

Weather History for KBLV - October, 2017

Change the Weather History Date:

Thursday, October 12, 2017

  Actual Average Record
Temperature  
Mean Temperature 56 °F -  
Max Temperature 60 °F 73 °F 87 °F (1975)
Min Temperature 51 °F 46 °F 27 °F (1988)
Degree Days  
Heating Degree Days 10    
Growing Degree Days 6 (Base 50)    
Moisture  
Dew Point 53 °F    
Average Humidity 87    
Maximum Humidity 100    
Minimum Humidity 70    
Precipitation  
Precipitation 0.00 in - - ()
Sea Level Pressure  
Sea Level Pressure 30.16 in    
Wind  
Wind Speed 3 mph (SSW)    
Max Wind Speed 7 mph    
Max Gust Speed -    
Visibility 9 miles    
Events Rain    
Averages and records for this station are not official NWS values.
T = Trace of Precipitation, MM = Missing Value Source: NWS Daily Summary

Daily Weather History Graph

Daily Weather History Graph

Search for Another Location

Airport or City:

Astronomy

Oct. 12, 2017 Rise Set
Actual Time 7:05 AM CDT 6:25 PM CDT
Civil Twilight 6:39 AM CDT 6:51 PM CDT
Nautical Twilight 6:08 AM CDT 7:22 PM CDT
Astronomical Twilight 5:37 AM CDT 7:53 PM CDT
Moon No Moon Rise 2:14 PM CDT (10/12)
Length of Visible Light 12h 12m
Length of Day
11h 19m
Waning Gibbous, 48% of the Moon is Illuminated
Oct 12
Waning Gibbous
Oct 19
New
Oct 27
First Quarter
Nov 4
Full
Nov 10
Last Quarter

Hourly Weather History & Observations

Time (CDT) Temp. Dew Point Humidity Pressure Visibility Wind Dir Wind Speed Gust Speed Precip Events Conditions
12:06 AM 55.4 °F 53.6 °F 94% 30.16 in 10.0 mi WNW 3.5 mph - N/A   Overcast
12:21 AM 55.4 °F 53.6 °F 94% 30.16 in 10.0 mi WNW 4.6 mph - N/A   Overcast
12:26 AM 55.4 °F 53.6 °F 94% 30.16 in 10.0 mi NW 4.6 mph - N/A   Overcast
12:31 AM 55.4 °F 53.6 °F 94% 30.16 in 10.0 mi WNW 4.6 mph - N/A   Overcast
12:36 AM 55.4 °F 53.6 °F 94% 30.16 in 10.0 mi NW 4.6 mph - N/A   Overcast
12:46 AM 55.4 °F 53.6 °F 94% 30.16 in 10.0 mi WNW 3.5 mph - N/A   Overcast
12:56 AM 55.9 °F 53.1 °F 90% 30.16 in 10.0 mi WNW 3.5 mph - N/A   Overcast
1:16 AM 55.4 °F 53.6 °F 94% 30.16 in 10.0 mi Calm Calm - N/A   Overcast
1:21 AM 55.4 °F 53.6 °F 94% 30.16 in 10.0 mi Calm Calm - N/A   Overcast
1:31 AM 55.4 °F 53.6 °F 94% 30.17 in 10.0 mi WNW 3.5 mph - N/A   Overcast
1:46 AM 55.4 °F 53.6 °F 94% 30.17 in 10.0 mi Calm Calm - N/A   Overcast
1:55 AM 55.4 °F 53.6 °F 94% 30.17 in 10.0 mi Calm Calm - N/A   Overcast
1:56 AM 55.8 °F 53.4 °F 92% 30.17 in 10.0 mi Calm Calm - N/A   Overcast
2:56 AM 55.9 °F 53.4 °F 91% 30.16 in 10.0 mi Calm Calm - N/A   Overcast
3:56 AM 55.9 °F 53.4 °F 91% 30.16 in 10.0 mi Calm Calm - N/A   Overcast
4:06 AM 55.4 °F 53.6 °F 94% 30.16 in 10.0 mi Calm Calm - N/A   Overcast
4:16 AM 55.4 °F 53.6 °F 94% 30.16 in 10.0 mi Calm Calm - N/A   Overcast
4:31 AM 55.4 °F 53.6 °F 94% 30.16 in 10.0 mi Calm Calm - N/A   Overcast
4:51 AM 55.4 °F 53.6 °F 94% 30.16 in 10.0 mi Calm Calm - N/A   Overcast
4:56 AM 55.9 °F 53.4 °F 91% 30.16 in 10.0 mi Calm Calm - N/A   Overcast
5:06 AM 55.4 °F 53.6 °F 94% 30.17 in 10.0 mi Calm Calm - N/A   Overcast
5:36 AM 55.4 °F 53.6 °F 94% 30.17 in 10.0 mi Calm Calm - N/A   Overcast
5:41 AM 55.4 °F 53.6 °F 94% 30.17 in 10.0 mi NW 3.5 mph - N/A   Overcast
5:46 AM 55.4 °F 53.6 °F 94% 30.18 in 10.0 mi Calm Calm - N/A   Overcast
5:56 AM - - N/A% 30.17 in 10.0 mi Calm Calm - N/A   Overcast
6:11 AM 55.4 °F 53.6 °F 94% 30.17 in 10.0 mi Calm Calm - N/A   Overcast
6:53 AM - - N/A% 30.18 in 9.0 mi Calm Calm - N/A Rain Light Rain
6:56 AM 57.2 °F 55.4 °F 94% 30.18 in 9.0 mi Calm Calm - 0.00 in Rain Light Rain
7:11 AM 55.4 °F 55.4 °F 100% 30.18 in 6.0 mi Calm Calm - N/A   Light Drizzle
7:56 AM 57.2 °F 53.6 °F 88% 30.19 in 5.0 mi SW 3.5 mph - 0.00 in   Overcast
8:46 AM 57.2 °F 53.6 °F 88% 30.20 in 10.0 mi SW 3.5 mph - N/A   Overcast
8:56 AM 57.2 °F 53.6 °F 88% 30.22 in 10.0 mi SSW 3.5 mph - N/A   Overcast
9:55 AM 58.3 °F 51.8 °F 79% 30.22 in 7.0 mi Variable 3.5 mph - N/A   Overcast
10:55 AM 59.5 °F 50.7 °F 73% 30.21 in 7.0 mi Variable 3.5 mph - N/A   Overcast
11:55 AM 58.5 °F 51.3 °F 77% 30.21 in 7.0 mi South 2.3 mph - N/A   Overcast
12:55 PM 59.9 °F 50.0 °F 70% 30.21 in 7.0 mi Calm Calm - N/A   Overcast
1:55 PM 60.1 °F 50.4 °F 70% 30.17 in 7.0 mi South 5.8 mph - N/A   Overcast
2:56 PM 60.1 °F 52.2 °F 75% 30.12 in 10.0 mi South 6.9 mph - N/A   Overcast
3:01 PM 60.8 °F 51.8 °F 72% 30.12 in 3.0 mi Calm Calm - N/A   Haze
3:16 PM 60.8 °F 51.8 °F 72% 30.12 in 10.0 mi South 5.8 mph - N/A   Overcast
3:41 PM 60.8 °F 51.8 °F 72% 30.12 in 10.0 mi SSW 6.9 mph - N/A   Partly Cloudy
3:47 PM 60.8 °F 51.8 °F 72% 30.12 in 3.0 mi South 5.8 mph - N/A   Overcast
3:56 PM 60.3 °F 52.0 °F 74% 30.12 in 10.0 mi South 5.8 mph - N/A   Overcast
4:56 PM 60.4 °F 51.8 °F 73% 30.12 in 10.0 mi South 3.5 mph - N/A   Overcast
5:56 PM 60.1 °F 51.8 °F 74% 30.10 in 10.0 mi SSE 5.8 mph - N/A   Mostly Cloudy
6:01 PM 59.0 °F 51.8 °F 77% 30.10 in 10.0 mi SSE 4.6 mph - N/A   Scattered Clouds
6:56 PM 55.2 °F 50.7 °F 85% 30.11 in 10.0 mi SE 4.6 mph - N/A   Clear
7:56 PM 54.5 °F 50.7 °F 87% 30.11 in 10.0 mi SE 4.6 mph - N/A   Clear
8:56 PM 52.7 °F 49.8 °F 90% 30.11 in 10.0 mi SSE 3.5 mph - N/A   Clear
9:56 PM 51.4 °F 49.1 °F 92% 30.11 in 10.0 mi SSE 4.6 mph - N/A   Clear
10:56 PM 51.4 °F 49.1 °F 92% 30.11 in 10.0 mi South 3.5 mph - N/A   Clear
11:56 PM 51.6 °F 49.6 °F 93% 30.12 in 10.0 mi South 3.5 mph - N/A   Clear